Shenandoah, IA

10:46 AM CDT on June 28, 2017 (GMT -0500)
Shenandoah Municipal

Weather History for KSDA - December, 2014

Change the Weather History Date:

Sunday, December 14, 2014

  Actual Average Record
Temperature  
Mean Temperature 56 °F -  
Max Temperature 60 °F 37 °F 60 °F (1975)
Min Temperature 53 °F 18 °F -19 °F (1985)
Degree Days  
Heating Degree Days 8    
Growing Degree Days 6 (Base 50)    
Moisture  
Dew Point 54 °F    
Average Humidity 94    
Maximum Humidity 100    
Minimum Humidity 77    
Precipitation  
Precipitation 0.11 in - - ()
Sea Level Pressure  
Sea Level Pressure 29.86 in    
Wind  
Wind Speed 14 mph (SSE)    
Max Wind Speed 21 mph    
Max Gust Speed 26 mph    
Visibility 6 miles    
Events Rain    
Averages and records for this station are not official NWS values.
T = Trace of Precipitation, MM = Missing Value Source: NWS Daily Summary

Daily Weather History Graph

Daily Weather History Graph

Search for Another Location

Airport or City:

Trip Planner

Search our weather history database for the weather conditions in past years. The results will help you decide how hot, cold, wet, or windy it might be!

Date:

Astronomy

Dec. 14, 2014 Rise Set
Actual Time 7:37 AM CST 4:54 PM CST
Civil Twilight 7:07 AM CST 5:25 PM CST
Nautical Twilight 6:32 AM CST 6:00 PM CST
Astronomical Twilight 5:59 AM CST 6:33 PM CST
Moon No Moon Rise 12:28 PM CST (12/14)
Length of Visible Light 10h 18m
Length of Day
9h 16m
Waning Gibbous, 48% of the Moon is Illuminated
Dec 14
Waning Gibbous
Dec 21
New
Dec 28
First Quarter
Jan 4
Full
Jan 13
Last Quarter

Hourly Weather History & Observations

Time (CST) Temp. Dew Point Humidity Pressure Visibility Wind Dir Wind Speed Gust Speed Precip Events Conditions
12:15 AM 53.6 °F 53.6 °F 100% 29.95 in 4.0 mi South 13.8 mph 20.7 mph N/A   Overcast
12:35 AM 53.6 °F 53.6 °F 100% 29.95 in 4.0 mi South 11.5 mph - N/A   Overcast
12:55 AM 53.6 °F 53.6 °F 100% 29.95 in - South 10.4 mph - N/A   Overcast
1:15 AM 53.6 °F 53.6 °F 100% 29.95 in 3.0 mi South 10.4 mph 16.1 mph N/A   Overcast
1:35 AM 53.6 °F 53.6 °F 100% 29.94 in 2.5 mi South 11.5 mph - N/A   Overcast
1:55 AM 53.6 °F 53.6 °F 100% 29.94 in 3.0 mi SSE 11.5 mph - N/A   Overcast
2:15 AM 53.6 °F 53.6 °F 100% 29.94 in 2.5 mi SSE 11.5 mph - N/A   Overcast
2:35 AM 53.6 °F 53.6 °F 100% 29.94 in 2.5 mi SSE 11.5 mph - N/A   Overcast
2:55 AM 53.6 °F 53.6 °F 100% 29.94 in 2.5 mi SSE 11.5 mph - N/A   Overcast
3:15 AM 53.6 °F 53.6 °F 100% 29.93 in 2.5 mi SSE 13.8 mph - N/A   Overcast
3:35 AM 53.6 °F 53.6 °F 100% 29.93 in 3.0 mi SSE 11.5 mph 17.3 mph N/A   Overcast
3:55 AM 55.4 °F 55.4 °F 100% 29.92 in 3.0 mi SSE 11.5 mph - N/A   Overcast
4:15 AM 55.4 °F 55.4 °F 100% 29.92 in 3.0 mi South 11.5 mph - N/A   Overcast
4:35 AM 55.4 °F 55.4 °F 100% 29.91 in 2.0 mi South 13.8 mph - N/A   Overcast
4:55 AM 55.4 °F 55.4 °F 100% 29.91 in 2.0 mi SSE 12.7 mph - N/A   Overcast
5:15 AM 55.4 °F 55.4 °F 100% 29.91 in 2.5 mi SSE 12.7 mph - N/A   Overcast
5:35 AM 55.4 °F 55.4 °F 100% 29.89 in 3.0 mi SSE 15.0 mph - N/A   Overcast
5:55 AM 55.4 °F 55.4 °F 100% 29.89 in 3.0 mi SSE 17.3 mph - N/A   Overcast
6:15 AM 55.4 °F 55.4 °F 100% 29.89 in 4.0 mi SSE 17.3 mph - N/A   Overcast
6:35 AM 55.4 °F 55.4 °F 100% 29.89 in 4.0 mi SSE 17.3 mph 24.2 mph N/A   Overcast
6:55 AM 55.4 °F 55.4 °F 100% 29.89 in 4.0 mi SSE 20.7 mph - N/A   Overcast
7:15 AM 55.4 °F 55.4 °F 100% 29.89 in 4.0 mi SSE 19.6 mph - N/A   Overcast
7:35 AM 55.4 °F 55.4 °F 100% 29.89 in 4.0 mi South 17.3 mph 26.5 mph N/A   Overcast
7:55 AM 55.4 °F 55.4 °F 100% 29.89 in 4.0 mi South 18.4 mph - N/A   Overcast
8:15 AM 55.4 °F 55.4 °F 100% 29.89 in 3.0 mi South 15.0 mph 25.3 mph N/A   Overcast
8:35 AM 55.4 °F 55.4 °F 100% 29.89 in 3.0 mi SSE 18.4 mph - N/A   Overcast
8:55 AM 55.4 °F 55.4 °F 100% 29.90 in 3.0 mi SSE 16.1 mph - N/A   Overcast
9:15 AM 55.4 °F 55.4 °F 100% 29.90 in 4.0 mi SSE 15.0 mph 21.9 mph N/A   Overcast
9:35 AM 55.4 °F 55.4 °F 100% 29.91 in 3.0 mi South 15.0 mph 23.0 mph N/A   Overcast
9:55 AM 55.4 °F 55.4 °F 100% 29.90 in 3.0 mi South 17.3 mph 24.2 mph N/A   Overcast
10:15 AM 55.4 °F 55.4 °F 100% 29.91 in 4.0 mi SSE 17.3 mph 25.3 mph N/A   Overcast
10:35 AM 55.4 °F 55.4 °F 100% 29.91 in 4.0 mi SSE 17.3 mph - N/A   Overcast
10:55 AM 55.4 °F 55.4 °F 100% 29.90 in 5.0 mi South 16.1 mph 23.0 mph N/A   Overcast
11:15 AM 57.2 °F 55.4 °F 94% 29.89 in 5.0 mi SSE 15.0 mph 21.9 mph N/A   Overcast
11:35 AM 57.2 °F 55.4 °F 94% 29.88 in 6.0 mi SSE 16.1 mph - N/A   Overcast
11:55 AM 57.2 °F 55.4 °F 94% 29.88 in 6.0 mi South 18.4 mph 25.3 mph N/A   Overcast
12:15 PM 57.2 °F 55.4 °F 94% 29.87 in 6.0 mi South 18.4 mph 25.3 mph N/A   Overcast
12:35 PM 59.0 °F 55.4 °F 88% 29.86 in 6.0 mi South 17.3 mph 24.2 mph N/A   Overcast
12:55 PM 59.0 °F 55.4 °F 88% 29.84 in 7.0 mi SSE 17.3 mph 24.2 mph N/A   Overcast
1:15 PM 59.0 °F 55.4 °F 88% 29.83 in 7.0 mi South 19.6 mph 25.3 mph N/A   Overcast
1:35 PM 59.0 °F 55.4 °F 88% 29.84 in 8.0 mi South 18.4 mph 24.2 mph N/A   Overcast
1:55 PM 59.0 °F 55.4 °F 88% 29.83 in 8.0 mi South 16.1 mph 21.9 mph N/A   Overcast
2:15 PM 60.8 °F 55.4 °F 82% 29.83 in 8.0 mi South 17.3 mph - N/A   Overcast
2:35 PM 60.8 °F 55.4 °F 82% 29.83 in 9.0 mi SSE 17.3 mph 25.3 mph N/A   Mostly Cloudy
2:55 PM 60.8 °F 55.4 °F 82% 29.82 in 9.0 mi SSE 20.7 mph - N/A   Mostly Cloudy
3:15 PM 60.8 °F 53.6 °F 77% 29.82 in 9.0 mi SSE 16.1 mph 23.0 mph N/A   Mostly Cloudy
3:35 PM 60.8 °F 53.6 °F 77% 29.82 in 9.0 mi SSE 15.0 mph - N/A   Overcast
3:55 PM 60.8 °F 53.6 °F 77% 29.82 in 9.0 mi SSE 9.2 mph - N/A   Mostly Cloudy
4:15 PM 59.0 °F 53.6 °F 82% 29.83 in 10.0 mi SSE 12.7 mph - N/A   Overcast
4:35 PM 59.0 °F 53.6 °F 82% 29.83 in 9.0 mi SSE 10.4 mph - N/A   Overcast
4:55 PM 57.2 °F 53.6 °F 88% 29.83 in 9.0 mi SSE 11.5 mph - N/A   Mostly Cloudy
5:15 PM 57.2 °F 53.6 °F 88% 29.82 in 10.0 mi SSE 10.4 mph - N/A   Overcast
5:35 PM 57.2 °F 53.6 °F 88% 29.82 in 10.0 mi SSE 10.4 mph - N/A   Overcast
5:55 PM 57.2 °F 53.6 °F 88% 29.82 in 10.0 mi SE 9.2 mph - N/A   Overcast
6:15 PM 57.2 °F 53.6 °F 88% 29.81 in 10.0 mi SE 8.1 mph - N/A   Overcast
6:35 PM 57.2 °F 53.6 °F 88% 29.80 in 10.0 mi SE 10.4 mph 17.3 mph N/A   Overcast
6:55 PM 57.2 °F 53.6 °F 88% 29.80 in 10.0 mi SE 12.7 mph - N/A   Overcast
7:15 PM 57.2 °F 53.6 °F 88% 29.79 in 10.0 mi ESE 15.0 mph - N/A   Overcast
7:35 PM 57.2 °F 53.6 °F 88% 29.79 in 10.0 mi SE 13.8 mph 20.7 mph N/A   Overcast
7:55 PM 57.2 °F 53.6 °F 88% 29.78 in 10.0 mi ESE 12.7 mph - N/A   Mostly Cloudy
8:15 PM 57.2 °F 53.6 °F 88% 29.77 in 10.0 mi ESE 15.0 mph - N/A   Overcast
8:35 PM 57.2 °F 53.6 °F 88% 29.78 in 10.0 mi SE 12.7 mph 19.6 mph N/A   Mostly Cloudy
8:55 PM 55.4 °F 53.6 °F 94% 29.79 in 5.0 mi SE 11.5 mph 18.4 mph 0.03 in   Overcast
9:15 PM 55.4 °F 53.6 °F 94% 29.78 in 5.0 mi SE 10.4 mph - N/A   Overcast
9:35 PM 55.4 °F 53.6 °F 94% 29.77 in 5.0 mi SE 11.5 mph - N/A   Overcast
9:55 PM 55.4 °F 53.6 °F 94% 29.75 in 4.0 mi ESE 13.8 mph - 0.04 in Rain Light Rain
10:15 PM 53.6 °F 53.6 °F 100% 29.74 in 5.0 mi ESE 17.3 mph - N/A   Light Drizzle
10:35 PM 55.4 °F 53.6 °F 94% 29.75 in 5.0 mi SE 13.8 mph 20.7 mph N/A   Overcast
10:55 PM 53.6 °F 53.6 °F 100% 29.74 in 4.0 mi SE 13.8 mph - 0.02 in   Overcast
11:15 PM 53.6 °F 53.6 °F 100% 29.74 in 4.0 mi SE 12.7 mph 20.7 mph N/A   Mostly Cloudy
11:35 PM 53.6 °F 53.6 °F 100% 29.74 in 6.0 mi SE 10.4 mph 17.3 mph N/A   Overcast
11:55 PM 53.6 °F 53.6 °F 100% 29.73 in 5.0 mi SSE 12.7 mph - 0.02 in   Overcast